Погода в Анапской

Россия / Краснодарский край     44°53′52″N   37°23′15″E
темп.,
°C
ветер,
м/с
пор.,
м/с
влажн.,
%
обл.,
%
осадки,
мм/ч
давл.,
гПа
погр.,
м
14 июня, пн
пн1400:00+16ю369587 0.0 1012122
03:00+15юв229498 0.0 101116
06:00+16в229099 0.0 101155
09:00+22в34604 0.0 1011558
12:00+25в555486 0.0 10111218
15:00+27в454871 0.0 10102004
18:00+25св586481 0.1 1009583
21:00+20всв5137822 0.1 1008344
15 июня, вт
вт1500:00+18всв4128528 0.2 1008241
03:00+17всв41294100 2.4 1007301
06:00+17в51392100 0.3 1007373
09:00+22в357896 0.4 1008417
12:00+25ююз56585 1.3 10091123
15:00+24юз55575 1.3 1009707
18:00+22юз56710 0.0 1009509
21:00+17юз23950 0.0 101048
16 июня, ср
ср1600:00+16зюз11933 0.0 100911
03:00+16з119252 0.0 100913
06:00+17з118963 0.2 100959
09:00+21ссз2379100 2.3 1009680
12:00+20зсз348798 0.7 1009433
15:00+22з437688 1.7 1009878
18:00+21з457518 0.1 1010661
21:00+17з22920 0.2 101122
17 июня, чт
чт1700:00+16ссв11910 0.0 101011
03:00+15юз1192100 0.0 101111
06:00+17юв1193100 3.3 101039
09:00+18с0290100 8.3 1011189
12:00+23сз346774 0.5 10121058
15:00+23з446766 0.6 10131067
18:00+21зюз447473 0.1 1014500
21:00+17ююз229255 0.1 101622
18 июня, пт
пт1800:00+16ююз22930 0.0 101626
03:00+16ююз22950 0.0 101623
06:00+17юв11930 0.0 101739
09:00+22св22700 0.0 1016808
12:00+25св32567 0.0 10161376
15:00+26ссв445978 0.1 10161373
18:00+23всв677812 1.0 1016780
21:00+19св510940 1.2 1017319